Location: Beccas
(43.4309°N, 0.1528°E)
Time: 23:38:52
(UTC+00:00)

Meteor 1-22 Rocket - Pass Details

Date: 15 October 2021
Orbit: 787 x 941 km, 81.2° (Epoch: 26 November)

Event Time Altitude Azimuth Distance (km) Brightness Sun altitude
Rises 17:28:41 0° 187° (S) 3,494 7.6 -3.1°
Reaches altitude 10° 17:31:05 10° 187° (S) 2,578 7.0 -3.5°
Maximum altitude 17:37:01 87° 101° (E) 933 4.5 -4.6°
Drops below altitude 10° 17:43:09 10° 11° (N) 2,661 6.6 -5.7°
Sets 17:45:40 0° 11° (N) 3,614 7.3 -6.1°
